sat.trackr.live / text

‹ back to catalog

STARLINK-11340 [DTC]

NORAD 61690 · 2024-195D

PAYLOAD ACTIVE UNKNOWN

§ Identity

Operator
Country
US
Launch date
2024-10-30
Launch site
AFWTR
Launch vehicle
Mass (kg)
RCS (m²)

Purposes: comms

External: N2YO · Heavens-Above · Gunter

§ Orbital elements

Epoch: 2026-05-25T01:04:56.944992Z

Period
91.74 min
Inclination
53.1575°
Eccentricity
0.0000913
Mean motion
15.69716188 rev/d
Perigee alt
359.1 km
Apogee alt
360.3 km
Semi-major
6,737.8 km
B*
3.8980e-5
RAAN
10.0355°
Arg perigee
50.8755°
Mean anomaly
309.2344°
Rev number
9,102

§ Raw data

STARLINK-11340 [DTC]1 61690U 24195D   26145.04510353  .00004137  00000+0  38980-4 0  99982 61690  53.1575  10.0355 0000913  50.8755 309.2344 15.69716188 91026

JSON: /api/v1/satellites/61690 · /tle

For live sub-satellite position, see the globe view (requires WebGL).

§ Visibility from observer

Set your observer location to see the next 7 days of passes ≥ 10°. The values pass through the URL so the page stays shareable.

No JS? Fill the form by hand. The geolocation button needs JavaScript.